« Back
NWS Peachtree City, Ga » Text Product » GA Regional Weather Roundup


Printer-friendly Version
Current Version              Previous Versions:   1  2  3  4  5  6  7  8  9  

Regional Weather Roundup

295
ASUS42 KFFC 010703
RWRGA
WEATHER ROUNDUP FOR GEORGIA
NATIONAL WEATHER SERVICE PEACHTREE CITY GA
300 AM EDT WED APR 01 2015

NOTE: "FAIR" INDICATES FEW OR NO CLOUDS BELOW 12,000 FEET WITH NO
SIGNIFICANT WEATHER AND/OR OBSTRUCTIONS TO VISIBILITY.

* = USE WITH CAUTION. THE STATIONS MARKED WITH AN ASTERISK MAY NOT
REPORT WEATHER SUCH AS PRECIPITATION, FOG, OR THUNDER AND ARE NOT
QUALITY CONTROLLED BY NWS.

THE REMARK "TC" DENOTES TEMPERATURE READING IN DEGREES CELSIUS.

GAZ001>058-010800-
NORTH GEORGIA

CITY           SKY/WX    TMP DP  RH WIND       PRES   REMARKS
ATLANTA        RAIN      58  54  86 NW13      30.01R FOG
ATHENS         CLOUDY    59  53  80 SW5       29.95S
CHAMBLEE       HVY RAIN  58  55  90 SW10      29.99R FOG
PEACHTREE CITY LGT RAIN  58  55  90 N7        30.02R FOG
ROME           CLOUDY    61  56  83 SW7       29.94F
WEST ATLANTA   RAIN      58  54  86 SW6       29.99F FOG
GAINESVILLE    CLOUDY    61  54  77 W12       29.97S
CARTERSVILLE   CLOUDY    58  53  84 VRB3      29.97S


CITY           SKY/WX    TMP DP  RH WIND       PRES   REMARKS
DALTON*        CLOUDY    59  55  88 CALM      29.95R
MARIETTA       LGT RAIN  58  56  96 SW10      29.97F
$$

GAZ059>098-102>109-010800-
CENTRAL GEORGIA

CITY           SKY/WX    TMP DP  RH WIND       PRES   REMARKS
AUGUSTA-BUSH   MOCLDY    66  51  58 W8        29.92F
AUGUSTA-DANIEL MOCLDY    68  51  54 VRB5      29.93F
COLUMBUS       PTCLDY    59  53  80 E3        29.98F
MACON          PTCLDY    57  55  93 CALM      29.99F
ROBINS AFB     PTCLDY    59  57  94 S6          N/A


CITY           SKY/WX    TMP DP  RH WIND       PRES   REMARKS
LAGRANGE*      MOCLDY    58  58 100 CALM      29.99S FOG
SYLVANIA*      CLOUDY    64  55  72 W3        29.95F
MILLEDGEVILLE* CLOUDY    59  59 100 CALM      29.96S
$$

GAZ099>101-110>166-010800-
SOUTH GEORGIA

CITY           SKY/WX    TMP DP  RH WIND       PRES   REMARKS
SAVANNAH       MOCLDY    59  56  89 W7        29.95F
VALDOSTA       CLEAR     64  61  90 VRB3      30.02F
ALMA           PTCLDY    58  55  90 SW5       30.01F
ST SIMONS      CLEAR     63  55  75 SW10      30.00F
FT STEWART     MOCLDY    59  57  91 SW6       29.95F
ALBANY         CLEAR     64  60  87 SW5       30.02F
HUNTER AFB     MOCLDY    59  59 100 W7        29.93S
MOODY AFB      CLEAR     62  59  88 S2        30.01F
BRUNSWICK      CLEAR     61  54  77 SW7       30.00F


CITY           SKY/WX    TMP DP  RH WIND       PRES   REMARKS
BAINBRIDGE*    CLEAR     66  64  94 SW6       30.01S
MOULTRIE*      CLEAR     63  63 100 SW3       30.02F
VIDALIA*       CLOUDY    59  59 100 SW6       29.93F
WAYCROSS*      MOCLDY    62  58  87 SW3       30.02R
DOUGLAS*       CLEAR     61  55  82 CALM      30.03F
$$



USA.gov is the U.S. government's official web portal to all federal, state and local government web resources and services.